Powrót do katalogu

DELTA 1 DEB

AktywnySSO
NORAD 40758·DEBRIS·🇺🇸 United States

Wystrzelony Jul 29, 1976 z Vandenberg Space Force Base

Loading…

Następne Przeloty (najbliższe 24 godziny)

TLE

ŚwieżeSource: Space-Track

Epoka: Sep 14, 2026, 03:18 UTC

1 40758U 76077GB  26257.13789649 -.00000023  00000-0  20334-3 0  9991
2 40758 102.5374 228.2078 0089099 308.8523 112.3605 12.25504159573008

Śledź DELTA 1 DEB w czasie rzeczywistym z AllMySat

Download on the App Store